Location: Seattle
(47.6064°N, 122.3308°W)
Time: 20:42:33
(UTC-07:00)

ISS - Visible Passes

Search period start: 22 October 2020 00:00
Search period end: 01 November 2020 00:00
Orbit: 417 x 420 km, 51.6° (Epoch: 22 October)

Date Brightness Start Highest point End Pass type
(mag) Time Alt. Az. Time Alt. Az. Time Alt. Az.
22 Oct -0.8 06:22:56 10° S 06:24:54 15° SE 06:26:53 10° E visible
24 Oct -2.2 06:22:49 10° SSW 06:25:53 34° SE 06:28:58 10° ENE visible
25 Oct -1.7 05:37:24 20° SSE 05:38:17 22° SE 05:40:58 10° E visible
25 Oct -3.8 07:11:25 10° WSW 07:14:48 78° NNW 07:18:10 10° ENE visible
26 Oct -0.5 04:52:03 12° ESE 04:52:03 12° ESE 04:52:41 10° E visible
26 Oct -3.7 06:25:01 22° SW 06:27:03 76° SSE 06:30:25 10° ENE visible
27 Oct -3.1 05:39:32 50° SE 05:39:32 50° SE 05:42:38 10° ENE visible
28 Oct -0.7 04:53:57 15° E 04:53:57 15° E 04:54:46 10° ENE visible
28 Oct -3.6 06:26:55 29° W 06:28:22 59° NNW 06:31:43 10° ENE visible
29 Oct -3.1 05:41:15 54° NE 05:41:15 54° NE 05:43:58 10° ENE visible
29 Oct -3.0 07:14:28 10° WNW 07:17:40 39° N 07:20:53 10° ENE visible
30 Oct -0.6 04:55:32 15° ENE 04:55:32 15° ENE 04:56:12 10° ENE visible
30 Oct -3.1 06:28:29 28° WNW 06:29:49 42° N 06:33:03 10° ENE visible
31 Oct -2.7 05:42:44 39° NNE 05:42:44 39° NNE 05:45:16 10° ENE visible
31 Oct -3.0 07:15:55 10° WNW 07:19:10 42° N 07:22:24 10° E visible
